Temperature
14 14 14 14 13 13 13 13 13 13 12 12 12 12 12 12 12 12 11 11 11 11 11 11 11 11 11 11 11 11 10 10 10 10 10 10 10 10 10 10 10 10 10
14 14 13 13 13 13 13 13 12 12 12 12 12 12 12 11 11 11 11 11 11 11 11 11 11 11 11 10 10 10 10 10 10 10 10 10 9 9 10 10 9 9 9
14 13 13 13 13 13 12 12 12 12 12 12 12 12 11 11 11 11 11 11 10 10 10 10 10 10 10 10 10 10 10 10 10 10 10 9 9 9 9 9 9 9 9
14 13 13 13 12 12 12 12 12 12 12 12 12 11 11 11 11 11 11 10 10 10 10 10 10 10 10 10 10 10 9 9 9 9 9 9 9 9 9 9 9 9 9
13 13 13 13 12 12 12 12 12 12 11 11 11 11 11 11 11 11 11 10 10 10 10 10 10 10 10 10 10 9 9 9 9 9 9 9 9 9 9 9 8 8 8
13 13 13 12 12 12 12 11 11 11 11 11 11 11 11 11 11 11 11 10 10 10 10 10 10 10 10 10 10 10 10 9 9 9 9 9 9 9 9 8 8 8 8
13 12 12 12 12 12 11 11 11 11 11 11 11 11 11 10 11 10 10 10 10 10 10 9 9 10 10 9 9 9 9 9 9 9 9 9 9 8 8 8 8 8 8
12 12 12 12 11 11 11 11 11 11 11 11 10 10 10 10 10 10 10 10 9 9 9 9 9 9 9 9 9 9 9 9 9 9 9 8 8 8 8 8 8 7 7
12 12 12 11 11 11 11 11 11 10 10 10 10 10 10 10 10 10 10 9 9 9 9 9 9 9 9 9 9 9 8 8 8 9 8 8 8 8 8 7 7 7 7
12 11 11 11 11 11 11 10 10 10 10 10 10 10 10 10 10 10 9 9 9 9 9 9 9 9 9 9 8 8 8 8 8 8 8 8 8 8 8 7 7 7 7
11 11 11 11 11 10 10 10 10 10 10 10 10 10 10 10 9 9 9 9 9 8 8 8 8 8 8 8 8 8 8 8 8 7 7 7 7 7 7 7 7 6 6
11 11 11 10 10 10 10 10 10 10 9 9 9 9 9 9 9 9 9 9 8 8 8 8 8 8 8 8 8 8 8 8 7 7 7 7 7 7 7 7 6 6 6
11 11 10 10 10 10 10 9 9 9 9 9 9 9 9 9 9 9 8 8 8 8 8 8 8 8 8 7 7 7 7 7 7 7 7 7 7 7 6 6 6 6 6
10 10 10 10 10 9 9 9 9 9 9 9 8 8 8 8 8 8 8 8 8 8 7 7 7 7 7 7 7 7 6 6 6 6 6 6 6 6 6 6 6 6 6
10 10 10 10 9 9 9 9 9 9 9 9 8 8 8 8 8 8 8 8 7 7 7 7 7 7 7 6 6 6 6 6 6 6 6 6 6 6 5 5 5 5 5
10 9 10 9 9 9 9 9 9 9 9 8 8 8 8 8 8 7 7 7 7 7 7 6 6 6 6 6 6 6 6 6 6 6 5 5 5 5 5 5 5 5 5
9 9 9 9 9 8 8 8 8 8 8 8 8 8 8 7 7 7 7 7 7 7 6 6 6 6 6 6 6 6 6 6 6 5 5 5 5 5 5 5 5 5 5
9 9 9 9 8 8 8 8 7 7 7 7 7 7 7 7 7 7 7 6 6 6 6 6 6 6 6 6 5 5 5 5 5 5 5 5 5 5 5 4 4 4 4
8 8 8 8 8 7 7 7 7 7 7 7 7 7 7 7 6 6 6 6 6 6 5 5 5 5 5 5 5 5 5 5 5 5 5 4 4 4 4 4 4 4 4
8 8 8 8 7 7 7 7 7 6 6 6 6 6 6 6 6 6 6 5 5 5 5 5 5 5 5 5 5 5 5 4 4 4 4 4 4 4 4 4 4 4 4
8 8 7 7 7 7 7 7 6 6 6 6 6 6 6 6 6 5 5 5 5 5 5 5 5 5 5 4 4 4 4 4 4 4 4 4 4 4 3 3 3 3 3
7 7 7 7 6 6 6 6 6 6 6 6 6 6 5 5 5 5 5 5 5 4 4 4 4 4 4 4 4 4 4 4 4 4 4 4 4 3 3 3 3 3 3
7 7 6 6 6 6 6 6 6 6 5 5 5 5 5 5 5 5 4 4 4 4 4 4 4 4 4 4 4 4 4 3 3 3 3 3 3 3 3 3 3 3 3
6 6 6 6 6 5 5 5 5 5 5 5 5 5 5 4 4 4 4 4 4 4 4 4 4 4 4 4 4 3 3 3 3 3 3 3 3 3 3 2 2 2 2
6 6 5 5 5 5 5 5 5 5 5 5 4 4 4 4 4 4 4 4 4 3 3 4 4 4 3 3 3 3 3 3 3 3 3 2 2 2 2 2 2 2 2
5 5 5 5 5 4 4 4 4 4 4 4 4 4 4 4 3 3 3 3 3 3 3 3 3 3 3 3 3 3 3 3 3 3 3 2 2 2 2 2 2 2 2
Wind_Speed
5 5 5 4 4 4 4 4 3 3 3 3 3 3 2 2 2 3 3 3 3 3 3 3 3 3 2 2 2 2 2 2 2 2 1 1 1 1 1 2 2 2 1
4 4 4 4 4 3 3 3 3 3 3 3 3 3 2 2 2 3 3 3 3 3 4 3 4 3 4 3 2 3 2 3 3 2 2 2 2 2 2 2 2 2 2
4 4 4 4 3 3 3 3 3 3 3 3 3 3 3 3 3 3 3 4 4 4 4 4 4 4 5 4 4 3 3 2 2 3 2 1 2 1 2 2 2 2 2
4 4 4 4 4 3 3 3 3 3 3 4 4 3 3 3 3 3 3 4 4 4 4 4 4 4 5 4 4 4 3 3 3 3 2 2 2 2 2 2 2 2 2
4 4 4 3 3 3 3 3 3 3 4 4 4 3 3 3 2 2 3 3 4 4 4 3 3 2 2 2 3 4 4 3 3 3 3 3 2 2 2 2 2 2 2
4 4 3 3 3 3 3 3 3 3 3 3 4 3 3 2 1 1 3 3 4 4 4 3 3 3 3 3 3 3 4 5 4 4 4 4 3 2 2 3 3 3 2
4 4 3 3 3 3 3 3 3 3 3 3 3 3 3 2 3 2 3 3 3 3 3 3 3 2 3 4 4 6 4 4 4 5 5 4 4 3 3 4 4 4 4
4 4 3 3 3 3 3 3 4 3 3 3 3 4 4 3 3 3 4 4 3 3 3 3 3 3 2 3 3 4 4 4 4 5 5 4 4 3 4 4 4 4 3
4 4 4 4 4 4 4 4 4 4 4 4 4 4 3 3 3 3 4 3 3 3 3 2 2 2 1 2 4 4 4 3 3 2 3 3 3 2 3 3 3 3 4
4 4 4 5 5 5 5 5 4 4 4 4 4 4 4 3 3 3 4 3 3 3 2 3 2 1 1 2 4 4 4 4 3 3 3 3 3 3 4 5 4 4 4
4 4 5 5 5 5 5 5 4 4 4 4 4 4 4 4 4 5 4 4 3 3 3 2 2 2 2 3 4 3 3 4 4 4 3 3 3 3 3 4 4 4 5
3 4 5 5 4 4 4 4 4 5 4 4 4 4 3 4 3 5 5 5 4 4 3 3 2 4 4 3 3 2 2 3 3 3 3 3 3 3 3 3 4 4 5
3 4 4 4 4 4 4 4 4 4 4 4 4 4 4 3 3 5 6 5 5 4 3 2 2 4 4 4 3 3 3 3 3 3 3 3 3 3 3 3 4 4 4
4 4 4 4 4 4 4 4 4 4 4 4 5 4 4 4 3 3 4 5 5 5 4 4 5 5 5 3 3 4 3 3 4 4 4 3 3 3 3 3 3 3 3
4 4 4 4 4 4 4 4 5 5 4 5 5 4 4 5 4 2 3 4 4 4 4 3 3 4 4 4 4 4 3 4 4 4 4 4 3 3 3 3 4 4 4
4 4 3 3 4 4 4 3 2 3 3 4 4 4 4 4 2 3 4 4 3 3 4 5 5 4 4 4 4 4 4 4 4 4 4 4 4 4 4 4 4 4 5
5 4 3 4 4 4 4 4 4 3 4 5 5 4 4 4 3 4 5 5 5 5 5 5 5 5 5 5 4 4 4 4 4 4 4 5 5 4 4 4 4 5 5
5 4 4 4 4 4 5 5 4 4 4 4 4 5 5 5 4 5 5 5 5 5 5 5 5 5 5 5 4 4 4 4 4 4 5 5 4 5 5 5 5 5 5
4 3 4 4 4 4 4 4 4 5 4 4 3 3 4 5 5 5 6 5 5 5 5 5 5 5 5 5 5 4 4 5 5 5 5 5 5 5 5 5 5 6 6
4 4 4 4 4 4 4 4 4 4 4 4 4 3 3 3 3 4 5 4 5 4 4 4 4 4 5 4 4 4 5 5 5 5 5 5 5 5 6 6 6 6 6
4 4 5 4 4 4 4 5 5 5 5 5 5 4 5 5 5 5 5 5 5 5 5 4 4 4 4 4 4 5 5 5 5 5 5 5 5 5 5 5 6 6 6
4 4 4 4 4 4 5 5 5 5 6 6 4 4 6 6 5 5 5 5 5 5 4 4 4 4 4 4 4 4 5 5 5 5 5 5 5 5 5 5 5 5 5
4 4 4 4 4 4 5 5 5 5 5 5 5 4 5 5 5 5 5 5 5 5 4 4 4 4 4 4 4 5 5 5 4 5 5 5 5 5 5 6 6 6 6
4 4 4 4 4 4 5 5 5 5 5 6 5 5 5 5 6 6 5 5 5 5 5 5 5 6 6 5 5 5 6 5 5 5 7 6 6 6 6 6 6 7 6
4 4 4 4 4 4 4 5 5 5 5 5 5 5 5 5 5 5 5 5 6 6 6 6 5 6 7 7 6 5 5 5 6 6 6 6 7 7 7 7 6 6 6
4 4 4 4 4 4 4 5 5 5 5 5 5 5 5 6 6 5 5 5 5 5 6 6 7 7 8 7 7 6 5 6 6 7 6 6 6 6 7 6 7 7 7
Wind_Direction
197 196 194 198 201 201 203 204 204 203 202 208 206 206 210 220 224 213 223 224 227 222 222 229 226 223 225 230 234 239 250 257 248 257 266 249 234 256 287 289 301 293 43
198 196 196 194 195 202 204 208 204 200 202 210 207 206 211 224 234 228 222 229 229 233 230 232 233 222 227 234 228 232 238 246 246 246 248 244 258 262 278 281 289 296 312
188 194 194 194 199 204 210 210 203 201 202 208 214 213 216 224 232 237 234 235 232 234 234 235 239 230 228 228 225 230 237 240 244 240 250 254 260 261 263 275 280 300 302
181 185 196 202 202 203 205 207 208 206 206 210 216 218 218 224 232 239 240 240 233 233 235 240 247 239 241 237 229 228 228 229 232 233 237 237 242 254 250 259 265 275 287
181 187 196 202 199 195 200 210 209 207 214 213 211 215 216 220 229 246 244 242 237 234 230 231 249 269 308 268 252 238 228 225 223 230 237 240 234 237 247 248 262 275 279
188 196 199 198 194 197 200 206 212 213 214 210 210 210 212 220 149 256 265 246 241 238 236 231 232 235 218 216 242 257 257 239 232 234 241 247 251 246 251 252 253 260 275
198 199 197 196 199 206 203 202 210 216 211 206 216 220 219 203 158 206 255 254 249 247 244 241 236 233 237 231 210 210 227 244 258 256 255 258 262 256 248 251 254 261 279
204 206 201 200 205 207 206 211 218 219 216 214 221 227 224 204 172 211 235 241 248 242 240 243 239 227 242 255 231 227 232 229 234 246 259 271 275 272 258 258 263 266 273
212 213 208 209 209 207 211 216 218 220 223 227 229 229 226 209 176 204 223 228 238 235 228 230 241 234 106 270 235 226 226 225 198 224 294 305 330 304 273 253 249 250 264
222 221 215 214 211 210 213 215 215 217 224 227 227 229 230 232 175 189 226 224 230 232 226 216 197 243 175 250 242 233 234 235 233 225 236 235 244 221 222 241 244 252 262
228 223 216 216 218 219 217 215 213 213 218 223 227 229 228 231 190 188 219 234 233 235 235 232 210 175 204 233 261 251 244 256 240 239 241 238 238 238 232 240 247 253 259
223 223 221 218 217 220 218 220 217 208 209 219 228 233 232 220 213 202 212 242 263 237 238 241 215 178 202 230 249 248 237 246 241 238 241 238 239 238 242 246 252 253 258
225 226 224 221 216 216 214 213 215 215 218 220 224 231 232 230 210 196 209 224 247 243 239 227 197 191 211 221 213 217 228 236 235 237 242 249 252 252 249 247 250 260 265
226 229 225 220 218 216 216 215 215 218 223 228 229 232 233 230 228 215 215 215 214 226 228 200 194 200 221 239 224 217 231 237 237 239 248 254 252 248 244 246 246 247 252
228 230 227 221 223 223 223 224 225 226 230 232 234 235 234 236 234 230 227 222 219 221 220 220 222 219 227 231 231 234 235 228 230 239 241 245 247 244 244 243 245 249 252
230 232 229 225 225 226 227 231 226 231 223 232 247 248 241 250 238 219 227 224 214 204 216 223 227 230 235 238 237 236 237 236 237 240 240 241 243 246 247 244 244 248 255
233 236 236 233 229 227 227 229 233 229 209 212 217 230 243 242 231 218 216 208 199 196 219 227 230 233 236 238 239 241 244 241 238 240 242 240 240 243 247 250 250 253 259
236 235 239 236 234 232 232 232 230 231 235 239 221 212 221 226 224 211 203 201 208 209 226 228 230 234 236 237 238 239 243 242 238 239 242 243 241 243 246 251 253 257 262
237 239 238 237 237 234 231 232 230 233 236 239 241 221 208 212 205 195 195 218 224 226 232 235 238 237 237 238 238 238 239 242 240 239 242 243 241 243 247 250 253 254 257
237 235 239 236 234 234 230 229 229 232 236 236 237 237 216 215 222 213 216 227 231 235 240 242 244 245 240 240 241 240 241 242 242 240 242 243 242 243 246 249 251 251 253
237 230 221 231 233 234 235 232 233 234 236 239 242 229 212 222 225 225 224 228 232 235 237 241 244 242 241 238 238 239 241 244 244 244 243 240 242 246 249 251 254 255 256
232 231 230 233 236 236 240 239 236 237 238 242 246 226 207 226 230 227 229 235 238 241 240 238 241 244 244 242 241 240 240 244 248 246 245 242 239 243 247 247 249 254 254
233 233 232 236 239 239 241 244 241 238 239 240 237 231 222 229 232 232 234 235 236 237 236 235 239 242 241 244 242 240 243 245 250 251 245 242 243 245 249 249 250 253 253
232 233 236 240 243 243 245 248 246 242 238 235 233 230 230 230 232 234 237 237 233 231 228 228 232 238 243 247 246 245 246 249 254 251 250 248 246 247 250 250 248 249 250
230 232 237 242 244 246 248 250 250 246 240 236 233 232 233 233 234 234 234 235 235 233 231 230 230 233 238 242 245 247 247 248 252 257 253 248 247 245 248 248 245 248 250
227 230 236 241 245 246 247 249 249 246 243 241 240 237 235 233 234 234 232 230 232 234 234 233 235 238 245 245 244 243 241 243 248 254 252 247 247 247 246 244 245 246 248
Height
1520 1521 1522 1523 1523 1524 1524 1524 1525 1525 1525 1525 1525 1525 1525 1525 1525 1525 1525 1525 1525 1525 1525 1526 1526 1526 1526 1526 1526 1526 1526 1526 1526 1526 1525 1525 1524 1523 1523 1523 1522 1522 1521
1518 1519 1519 1520 1521 1522 1522 1522 1523 1523 1523 1523 1523 1523 1523 1523 1523 1523 1523 1523 1523 1523 1524 1524 1524 1524 1524 1524 1524 1524 1524 1524 1524 1524 1524 1523 1522 1522 1521 1521 1521 1520 1520
1516 1516 1517 1518 1518 1519 1520 1520 1520 1521 1521 1521 1521 1521 1521 1521 1521 1521 1521 1521 1521 1521 1522 1522 1522 1522 1522 1522 1522 1522 1522 1522 1522 1522 1522 1521 1521 1520 1520 1519 1519 1519 1518
1513 1514 1514 1515 1516 1516 1517 1518 1518 1518 1519 1519 1519 1519 1519 1519 1519 1519 1519 1519 1519 1519 1519 1519 1520 1520 1520 1520 1520 1520 1520 1520 1520 1520 1520 1520 1519 1518 1518 1518 1518 1517 1517
1511 1511 1512 1513 1513 1513 1514 1515 1515 1516 1516 1516 1517 1517 1517 1517 1517 1517 1517 1517 1517 1517 1516 1516 1517 1517 1517 1517 1517 1517 1518 1518 1518 1518 1518 1518 1518 1517 1517 1516 1516 1515 1515
1509 1509 1510 1510 1510 1510 1511 1512 1512 1513 1513 1513 1514 1514 1514 1514 1514 1514 1514 1514 1514 1514 1514 1514 1514 1514 1514 1514 1514 1514 1515 1515 1516 1516 1516 1516 1516 1515 1515 1515 1515 1514 1513
1506 1507 1507 1507 1508 1508 1508 1509 1509 1510 1510 1510 1511 1511 1511 1511 1511 1512 1511 1511 1512 1512 1512 1511 1511 1511 1511 1511 1511 1511 1512 1512 1513 1514 1514 1514 1514 1513 1513 1513 1512 1512 1511
1503 1504 1504 1504 1505 1505 1505 1506 1506 1507 1507 1507 1508 1508 1508 1508 1509 1509 1509 1509 1509 1509 1509 1509 1509 1508 1508 1508 1509 1509 1510 1510 1510 1510 1511 1511 1511 1511 1510 1510 1510 1510 1509
1501 1501 1501 1502 1502 1502 1502 1503 1504 1504 1504 1504 1505 1505 1505 1505 1506 1506 1506 1506 1506 1506 1506 1506 1506 1506 1505 1505 1506 1506 1507 1507 1507 1507 1507 1507 1507 1507 1507 1507 1507 1507 1506
1497 1498 1499 1499 1499 1499 1500 1500 1501 1501 1502 1502 1502 1502 1502 1503 1503 1503 1503 1503 1503 1504 1503 1503 1503 1503 1503 1503 1503 1504 1504 1504 1504 1504 1504 1504 1504 1504 1504 1504 1504 1505 1504
1495 1495 1496 1496 1496 1497 1497 1497 1498 1498 1498 1499 1499 1499 1499 1499 1500 1500 1500 1501 1501 1501 1501 1500 1500 1500 1500 1500 1500 1501 1501 1501 1502 1502 1502 1502 1501 1501 1501 1501 1501 1501 1501
1491 1492 1492 1493 1493 1493 1494 1494 1494 1495 1495 1495 1496 1496 1496 1496 1496 1496 1497 1497 1498 1498 1498 1498 1497 1497 1497 1497 1497 1497 1498 1498 1499 1499 1499 1499 1499 1498 1498 1498 1498 1498 1498
1488 1489 1489 1490 1490 1490 1490 1490 1490 1491 1491 1491 1492 1492 1492 1493 1493 1493 1493 1494 1494 1494 1494 1494 1494 1494 1494 1494 1494 1494 1495 1495 1495 1495 1496 1496 1496 1495 1495 1495 1495 1495 1494
1485 1485 1486 1486 1486 1486 1486 1487 1487 1487 1487 1487 1488 1488 1488 1489 1489 1489 1489 1490 1490 1490 1491 1491 1491 1491 1490 1490 1490 1491 1491 1492 1492 1492 1492 1492 1492 1492 1492 1491 1491 1491 1491
1481 1481 1482 1482 1482 1482 1483 1483 1483 1483 1483 1483 1484 1484 1484 1484 1485 1485 1485 1486 1486 1486 1487 1487 1487 1487 1487 1487 1487 1487 1488 1488 1488 1488 1488 1488 1488 1488 1488 1488 1488 1488 1487
1477 1477 1478 1478 1478 1478 1478 1478 1478 1479 1479 1479 1480 1480 1480 1481 1481 1481 1482 1482 1482 1482 1483 1483 1483 1483 1483 1483 1483 1483 1484 1484 1484 1484 1484 1484 1485 1485 1485 1485 1484 1484 1484
1473 1473 1473 1474 1474 1474 1474 1474 1474 1474 1475 1475 1475 1475 1476 1476 1476 1477 1477 1478 1478 1478 1478 1478 1478 1478 1479 1479 1479 1479 1479 1480 1480 1480 1480 1480 1480 1480 1480 1480 1480 1480 1480
1469 1469 1469 1469 1469 1470 1470 1469 1470 1469 1470 1470 1470 1470 1471 1471 1472 1472 1473 1473 1473 1472 1472 1473 1473 1474 1474 1474 1475 1475 1475 1476 1476 1476 1476 1476 1476 1476 1476 1476 1476 1476 1475
1465 1465 1465 1465 1465 1465 1465 1465 1465 1466 1466 1465 1466 1466 1466 1467 1467 1467 1468 1468 1468 1468 1468 1468 1468 1469 1469 1470 1470 1471 1471 1471 1471 1471 1471 1471 1471 1471 1471 1471 1471 1471 1471
1460 1461 1461 1461 1461 1461 1461 1461 1461 1461 1461 1461 1461 1462 1462 1462 1462 1462 1463 1463 1463 1463 1463 1463 1464 1464 1465 1465 1465 1466 1466 1466 1466 1466 1466 1466 1466 1466 1466 1466 1466 1466 1466
1456 1456 1456 1457 1457 1457 1457 1456 1456 1457 1457 1457 1457 1457 1457 1458 1458 1458 1458 1458 1458 1459 1459 1459 1459 1460 1460 1460 1461 1461 1461 1461 1461 1461 1461 1461 1461 1461 1461 1461 1461 1461 1461
1452 1452 1452 1452 1452 1452 1452 1452 1452 1452 1452 1452 1452 1452 1453 1453 1453 1454 1454 1454 1454 1454 1455 1455 1455 1455 1455 1456 1456 1456 1456 1456 1456 1456 1457 1457 1457 1457 1457 1457 1457 1456 1456
1447 1447 1448 1448 1448 1448 1448 1447 1447 1448 1448 1448 1448 1448 1448 1448 1448 1448 1448 1449 1449 1449 1450 1450 1450 1450 1451 1451 1451 1451 1451 1451 1451 1451 1452 1452 1452 1452 1452 1452 1452 1452 1452
1443 1443 1443 1443 1443 1443 1443 1443 1443 1443 1443 1443 1443 1443 1443 1443 1443 1443 1443 1444 1444 1444 1444 1445 1445 1445 1446 1446 1446 1446 1446 1446 1446 1446 1447 1447 1447 1447 1447 1447 1447 1447 1447
1438 1438 1438 1438 1438 1438 1438 1438 1438 1438 1438 1438 1438 1437 1437 1437 1437 1438 1438 1439 1439 1439 1439 1440 1440 1440 1441 1441 1441 1441 1441 1441 1441 1441 1441 1441 1441 1442 1442 1442 1442 1442 1443
1434 1434 1434 1434 1434 1434 1433 1433 1433 1433 1433 1432 1432 1432 1432 1432 1432 1432 1432 1433 1433 1434 1434 1434 1435 1435 1436 1436 1436 1436 1436 1436 1435 1435 1435 1435 1436 1436 1437 1437 1437 1438 1438